STARLINK-11284 [DTC]

Last updated on Mon Oct 14 2024 00:02:03 GMT+0000 (Coordinated Universal Time)

1 61052U 24164C 24287.52078109 .00062578 00000+0 38348-3 0 9992 2 61052 53.1533 316.3312 0000673 140.2948 219.8123 15.76731528 4970
UTC large
Height (km)
Speed (km/s)
/
Latitude / Longitude
Inclination (degrees)
Orbital Period (minutes)
Azimuth
Elevation
Range (km)
Doppler Factor

Next 0 passes for location: London (51.5072 / 0.1276)

Sorry there are no passes over London.